This is the latest recevied weather packets stored in our database for station/object YO6IKB-10. If no packets are shown the sender has not sent any weather packets the latest 10 day(s).
| Time | Temp. | Humidity | Pressure | Rain* | Wind** | Luminosity | Snow |
|---|---|---|---|---|---|---|---|
| 1777805397 | 12.78° C | 42% | 1017.8 hPa | 0 mm | - | - | - |
| 1777805097 | 12.78° C | 42% | 1017.9 hPa | 0 mm | - | - | - |
| 1777804797 | 12.22° C | 46% | 1018 hPa | 0 mm | - | - | - |
| 1777804496 | 11.67° C | 44% | 1018.1 hPa | 0 mm | - | - | - |
| 1777804196 | 11.67° C | 43% | 1018 hPa | 0 mm | - | - | - |
| 1777803896 | 12.22° C | 42% | 1018.2 hPa | 0 mm | - | - | - |
| 1777803595 | 12.22° C | 43% | 1018.2 hPa | 0 mm | - | - | - |
| 1777803295 | 12.78° C | 42% | 1018.2 hPa | 0 mm | - | - | - |
| 1777802995 | 12.78° C | 43% | 1018.2 hPa | 0 mm | - | - | - |
| 1777802695 | 13.33° C | 44% | 1018.2 hPa | 0 mm | - | - | - |
| 1777802394 | 12.78° C | 43% | 1018.4 hPa | 0 mm | - | - | - |
| 1777802094 | 12.78° C | 45% | 1018.4 hPa | 0 mm | - | - | - |
| 1777801794 | 12.22° C | 45% | 1018.4 hPa | 0 mm | - | - | - |
| 1777801493 | 11.67° C | 46% | 1018.4 hPa | 0 mm | - | - | - |
| 1777801193 | 11.67° C | 45% | 1018.4 hPa | 0 mm | - | - | - |
| 1777800893 | 12.22° C | 45% | 1018.6 hPa | 0 mm | - | - | - |
| 1777800593 | 11.67° C | 46% | 1018.7 hPa | 0 mm | - | - | - |
| 1777800292 | 11.11° C | 46% | 1018.7 hPa | 0 mm | - | - | - |
| 1777799992 | 11.67° C | 44% | 1018.8 hPa | 0 mm | - | - | - |
| 1777799692 | 12.22° C | 45% | 1018.8 hPa | 0 mm | - | - | - |
| 1777799391 | 12.78° C | 44% | 1018.7 hPa | 0 mm | - | - | - |
| 1777799091 | 13.33° C | 48% | 1018.7 hPa | 0 mm | - | - | - |
| 1777798791 | 12.22° C | 51% | 1018.8 hPa | 0 mm | - | - | - |
| 1777798490 | 11.67° C | 48% | 1018.8 hPa | 0 mm | - | - | - |
| 1777798190 | 11.11° C | 51% | 1018.9 hPa | 0 mm | - | - | - |
* Rain latest hour (hover to see other rain measurements)
** Current wind speed in m/s (hover to see current wind gust speed)